Simultaneous Nadir Overpasses (SNOs) Predictions

Prediction of SNOs between NOAA-19 and NPP Satellite Orbit:

Table of predicted SNOs for the next 14.0 days since TLE Epoch: 12/23/2014
Index Date (NOAA-19) Time (NOAA-19) Lat,Lon (NOAA-19) SZA (NOAA-19 ) Date (NPP) Time (NPP) Lat,Lon (NPP) SZA (NPP ) Distance(km) Time Diff (sec)
1 12/26/2014 09:53:35 80.92, -17.51 107.24 12/26/2014 09:54:46 80.93, -17.62 107.22 2.01 71
2 12/26/2014 10:44:39 -80.92, 149.77 72.77 12/26/2014 10:45:30 -80.92, 149.87 72.81 1.80 51
3 12/26/2014 11:35:37 80.91, -42.62 107.18 12/26/2014 11:36:15 80.91, -42.71 107.18 1.72 38
4 12/26/2014 12:26:41 -80.91, 124.65 72.83 12/26/2014 12:26:59 -80.91, 124.77 72.85 2.17 18
5 12/26/2014 13:17:39 80.90, -67.73 107.13 12/26/2014 13:17:44 80.90, -67.81 107.14 1.45 5
6 12/26/2014</
